iso_date,epoch_date,Year,Hour,Min,DOY,POS_DOY,Lat,Lon,BP,Ts,Ta,has_bp,has_ts,has_ta,BuoyID,Buoy_Type,Buoy_Owner,Logistics,Hemisphere
2021-09-20T18:00:00Z,1632160800,2021,18,0,263.75,263.75,64.808,-33.048,1001.7,9.06,-999.0,yes,yes,no,300234068441310,BD2VHI,AOML,UNKNOWN,North
2021-09-20T21:00:00Z,1632171600,2021,21,0,263.875,263.875,64.823,-33.083,1000.6,9.03,-999.0,yes,yes,no,300234068441310,BD2VHI,AOML,UNKNOWN,North
2021-09-21T00:00:00Z,1632182400,2021,0,0,264.0,264.0,64.85,-33.092,997.9,9.03,-999.0,yes,yes,no,300234068441310,BD2VHI,AOML,UNKNOWN,North
2021-09-21T03:00:00Z,1632193200,2021,3,0,264.125,264.125,64.871,-33.092,994.1,8.95,-999.0,yes,yes,no,300234068441310,BD2VHI,AOML,UNKNOWN,North
2021-09-21T06:00:00Z,1632204000,2021,6,0,264.25,264.25,64.875,-33.126,990.9,8.77,-999.0,yes,yes,no,300234068441310,BD2VHI,AOML,UNKNOWN,North
2021-09-21T09:00:00Z,1632214800,2021,9,0,264.375,264.375,64.861,-33.225,989.5,8.9,-999.0,yes,yes,no,300234068441310,BD2VHI,AOML,UNKNOWN,North
2021-09-21T12:00:00Z,1632225600,2021,12,0,264.5,264.5,64.855,-33.325,990.6,8.55,-999.0,yes,yes,no,300234068441310,BD2VHI,AOML,UNKNOWN,North
2021-09-21T15:00:00Z,1632236400,2021,15,0,264.625,264.625,64.846,-33.393,991.8,8.8,-999.0,yes,yes,no,300234068441310,BD2VHI,AOML,UNKNOWN,North
2021-09-21T18:00:00Z,1632247200,2021,18,0,264.75,264.75,64.839,-33.439,992.7,8.83,-999.0,yes,yes,no,300234068441310,BD2VHI,AOML,UNKNOWN,North
2021-09-21T21:00:00Z,1632258000,2021,21,0,264.875,264.875,64.829,-33.469,991.3,8.86,-999.0,yes,yes,no,300234068441310,BD2VHI,AOML,UNKNOWN,North
2021-09-22T00:00:00Z,1632268800,2021,0,0,265.0,265.0,64.831,-33.476,989.7,8.67,-999.0,yes,yes,no,300234068441310,BD2VHI,AOML,UNKNOWN,North
2021-09-22T03:00:00Z,1632279600,2021,3,0,265.125,265.125,64.828,-33.489,986.9,8.76,-999.0,yes,yes,no,300234068441310,BD2VHI,AOML,UNKNOWN,North
2021-09-22T06:00:00Z,1632290400,2021,6,0,265.25,265.25,64.833,-33.488,986.8,8.79,-999.0,yes,yes,no,300234068441310,BD2VHI,AOML,UNKNOWN,North
2021-09-22T09:00:00Z,1632301200,2021,9,0,265.375,265.375,64.811,-33.473,990.6,8.8,-999.0,yes,yes,no,300234068441310,BD2VHI,AOML,UNKNOWN,North
2021-09-22T12:00:00Z,1632312000,2021,12,0,265.5,265.5,64.797,-33.461,993.2,8.79,-999.0,yes,yes,no,300234068441310,BD2VHI,AOML,UNKNOWN,North
2021-09-22T15:00:00Z,1632322800,2021,15,0,265.625,265.625,64.81,-33.456,994.8,8.9,-999.0,yes,yes,no,300234068441310,BD2VHI,AOML,UNKNOWN,North
2021-09-22T18:00:00Z,1632333600,2021,18,0,265.75,265.75,64.834,-33.433,996.1,8.95,-999.0,yes,yes,no,300234068441310,BD2VHI,AOML,UNKNOWN,North
2021-09-22T21:00:00Z,1632344400,2021,21,0,265.875,265.875,64.853,-33.4,997.1,8.86,-999.0,yes,yes,no,300234068441310,BD2VHI,AOML,UNKNOWN,North
2021-09-23T00:00:00Z,1632355200,2021,0,0,266.0,266.0,64.858,-33.34,997.6,8.76,-999.0,yes,yes,no,300234068441310,BD2VHI,AOML,UNKNOWN,North
2021-09-23T03:00:00Z,1632366000,2021,3,0,266.125,266.125,64.856,-33.302,996.2,8.72,-999.0,yes,yes,no,300234068441310,BD2VHI,AOML,UNKNOWN,North
2021-09-23T06:00:00Z,1632376800,2021,6,0,266.25,266.25,64.866,-33.245,994.6,8.74,-999.0,yes,yes,no,300234068441310,BD2VHI,AOML,UNKNOWN,North
2021-09-23T09:00:00Z,1632387600,2021,9,0,266.375,266.375,64.866,-33.164,993.0,8.8,-999.0,yes,yes,no,300234068441310,BD2VHI,AOML,UNKNOWN,North
2021-09-23T12:00:00Z,1632398400,2021,12,0,266.5,266.5,64.862,-33.103,993.3,9.06,-999.0,yes,yes,no,300234068441310,BD2VHI,AOML,UNKNOWN,North
2021-09-23T15:00:00Z,1632409200,2021,15,0,266.625,266.625,64.866,-33.04,993.6,9.06,-999.0,yes,yes,no,300234068441310,BD2VHI,AOML,UNKNOWN,North
2021-09-23T18:00:00Z,1632420000,2021,18,0,266.75,266.75,64.859,-32.995,994.4,9.36,-999.0,yes,yes,no,300234068441310,BD2VHI,AOML,UNKNOWN,North
2021-09-23T21:00:00Z,1632430800,2021,21,0,266.875,266.875,64.847,-32.946,995.9,9.41,-999.0,yes,yes,no,300234068441310,BD2VHI,AOML,UNKNOWN,North
2021-09-24T00:00:00Z,1632441600,2021,0,0,267.0,267.0,64.817,-32.906,997.3,9.35,-999.0,yes,yes,no,300234068441310,BD2VHI,AOML,UNKNOWN,North
2021-09-24T03:00:00Z,1632452400,2021,3,0,267.125,267.125,64.792,-32.885,997.7,9.35,-999.0,yes,yes,no,300234068441310,BD2VHI,AOML,UNKNOWN,North
2021-09-24T06:00:00Z,1632463200,2021,6,0,267.25,267.25,64.778,-32.905,997.7,9.39,-999.0,yes,yes,no,300234068441310,BD2VHI,AOML,UNKNOWN,North
2021-09-24T09:00:00Z,1632474000,2021,9,0,267.375,267.375,64.773,-32.924,998.0,9.29,-999.0,yes,yes,no,300234068441310,BD2VHI,AOML,UNKNOWN,North
2021-09-24T12:00:00Z,1632484800,2021,12,0,267.5,267.5,64.763,-32.918,998.0,9.31,-999.0,yes,yes,no,300234068441310,BD2VHI,AOML,UNKNOWN,North
2021-09-24T15:00:00Z,1632495600,2021,15,0,267.625,267.625,64.746,-32.928,998.0,9.21,-999.0,yes,yes,no,300234068441310,BD2VHI,AOML,UNKNOWN,North
2021-09-24T18:00:00Z,1632506400,2021,18,0,267.75,267.75,64.736,-32.984,998.1,9.01,-999.0,yes,yes,no,300234068441310,BD2VHI,AOML,UNKNOWN,North
2021-09-24T21:00:00Z,1632517200,2021,21,0,267.875,267.875,64.729,-33.042,999.1,9.07,-999.0,yes,yes,no,300234068441310,BD2VHI,AOML,UNKNOWN,North
2021-09-25T00:00:00Z,1632528000,2021,0,0,268.0,268.0,64.71,-33.074,999.9,9.24,-999.0,yes,yes,no,300234068441310,BD2VHI,AOML,UNKNOWN,North
2021-09-25T03:00:00Z,1632538800,2021,3,0,268.125,268.125,64.68,-33.127,1000.4,9.28,-999.0,yes,yes,no,300234068441310,BD2VHI,AOML,UNKNOWN,North
2021-09-25T06:00:00Z,1632549600,2021,6,0,268.25,268.25,64.646,-33.229,1001.0,9.18,-999.0,yes,yes,no,300234068441310,BD2VHI,AOML,UNKNOWN,North
2021-09-25T09:00:00Z,1632560400,2021,9,0,268.375,268.375,64.628,-33.375,1002.9,8.82,-999.0,yes,yes,no,300234068441310,BD2VHI,AOML,UNKNOWN,North
2021-09-25T12:00:00Z,1632571200,2021,12,0,268.5,268.5,64.62,-33.492,1004.5,8.87,-999.0,yes,yes,no,300234068441310,BD2VHI,AOML,UNKNOWN,North
2021-09-25T15:00:00Z,1632582000,2021,15,0,268.625,268.625,64.604,-33.593,1005.6,9.13,-999.0,yes,yes,no,300234068441310,BD2VHI,AOML,UNKNOWN,North
2021-09-25T18:00:00Z,1632592800,2021,18,0,268.75,268.75,64.584,-33.708,1007.0,9.11,-999.0,yes,yes,no,300234068441310,BD2VHI,AOML,UNKNOWN,North
2021-09-25T21:00:00Z,1632603600,2021,21,0,268.875,268.875,64.565,-33.839,1008.4,9.03,-999.0,yes,yes,no,300234068441310,BD2VHI,AOML,UNKNOWN,North
2021-09-26T00:00:00Z,1632614400,2021,0,0,269.0,269.0,64.552,-33.962,1009.6,9.02,-999.0,yes,yes,no,300234068441310,BD2VHI,AOML,UNKNOWN,North
2021-09-26T03:00:00Z,1632625200,2021,3,0,269.125,269.125,64.536,-34.065,1010.2,8.92,-999.0,yes,yes,no,300234068441310,BD2VHI,AOML,UNKNOWN,North
2021-09-26T06:00:00Z,1632636000,2021,6,0,269.25,269.25,64.511,-34.13,1010.5,8.65,-999.0,yes,yes,no,300234068441310,BD2VHI,AOML,UNKNOWN,North
2021-09-26T09:00:00Z,1632646800,2021,9,0,269.375,269.375,64.488,-34.2,1011.3,8.4,-999.0,yes,yes,no,300234068441310,BD2VHI,AOML,UNKNOWN,North
2021-09-26T12:00:00Z,1632657600,2021,12,0,269.5,269.5,64.46,-34.247,1011.5,8.35,-999.0,yes,yes,no,300234068441310,BD2VHI,AOML,UNKNOWN,North
2021-09-26T15:00:00Z,1632668400,2021,15,0,269.625,269.625,64.439,-34.28,1011.9,8.42,-999.0,yes,yes,no,300234068441310,BD2VHI,AOML,UNKNOWN,North
2021-09-26T18:00:00Z,1632679200,2021,18,0,269.75,269.75,64.419,-34.293,1012.0,8.5,-999.0,yes,yes,no,300234068441310,BD2VHI,AOML,UNKNOWN,North
2021-09-26T21:00:00Z,1632690000,2021,21,0,269.875,269.875,64.401,-34.318,1012.7,8.54,-999.0,yes,yes,no,300234068441310,BD2VHI,AOML,UNKNOWN,North
2021-09-27T00:00:00Z,1632700800,2021,0,0,270.0,270.0,64.388,-34.34,1013.1,8.52,-999.0,yes,yes,no,300234068441310,BD2VHI,AOML,UNKNOWN,North
2021-09-27T03:00:00Z,1632711600,2021,3,0,270.125,270.125,64.379,-34.345,1013.6,8.57,-999.0,yes,yes,no,300234068441310,BD2VHI,AOML,UNKNOWN,North
2021-09-27T06:00:00Z,1632722400,2021,6,0,270.25,270.25,64.371,-34.334,1013.6,8.57,-999.0,yes,yes,no,300234068441310,BD2VHI,AOML,UNKNOWN,North
2021-09-27T09:00:00Z,1632733200,2021,9,0,270.375,270.375,64.366,-34.34,1012.9,8.35,-999.0,yes,yes,no,300234068441310,BD2VHI,AOML,UNKNOWN,North
2021-09-27T12:00:00Z,1632744000,2021,12,0,270.5,270.5,64.381,-34.335,1012.2,8.39,-999.0,yes,yes,no,300234068441310,BD2VHI,AOML,UNKNOWN,North
2021-09-27T15:00:00Z,1632754800,2021,15,0,270.625,270.625,64.391,-34.303,1012.4,8.62,-999.0,yes,yes,no,300234068441310,BD2VHI,AOML,UNKNOWN,North
2021-09-27T18:00:00Z,1632765600,2021,18,0,270.75,270.75,64.383,-34.3,1013.0,8.71,-999.0,yes,yes,no,300234068441310,BD2VHI,AOML,UNKNOWN,North
2021-09-27T21:00:00Z,1632776400,2021,21,0,270.875,270.875,64.371,-34.313,1014.7,8.71,-999.0,yes,yes,no,300234068441310,BD2VHI,AOML,UNKNOWN,North
2021-09-28T00:00:00Z,1632787200,2021,0,0,271.0,271.0,64.357,-34.349,1015.3,8.69,-999.0,yes,yes,no,300234068441310,BD2VHI,AOML,UNKNOWN,North
2021-09-28T03:00:00Z,1632798000,2021,3,0,271.125,271.125,64.341,-34.395,1015.7,8.68,-999.0,yes,yes,no,300234068441310,BD2VHI,AOML,UNKNOWN,North
2021-09-28T06:00:00Z,1632808800,2021,6,0,271.25,271.25,64.326,-34.446,1015.9,8.6,-999.0,yes,yes,no,300234068441310,BD2VHI,AOML,UNKNOWN,North
2021-09-28T09:00:00Z,1632819600,2021,9,0,271.375,271.375,64.317,-34.505,1015.5,8.42,-999.0,yes,yes,no,300234068441310,BD2VHI,AOML,UNKNOWN,North
2021-09-28T12:00:00Z,1632830400,2021,12,0,271.5,271.5,64.309,-34.571,1014.3,8.58,-999.0,yes,yes,no,300234068441310,BD2VHI,AOML,UNKNOWN,North
2021-09-28T15:00:00Z,1632841200,2021,15,0,271.625,271.625,64.304,-34.611,1011.9,8.72,-999.0,yes,yes,no,300234068441310,BD2VHI,AOML,UNKNOWN,North
2021-09-28T18:00:00Z,1632852000,2021,18,0,271.75,271.75,64.288,-34.609,1009.0,8.75,-999.0,yes,yes,no,300234068441310,BD2VHI,AOML,UNKNOWN,North
2021-09-28T21:00:00Z,1632862800,2021,21,0,271.875,271.875,64.268,-34.597,1008.6,8.69,-999.0,yes,yes,no,300234068441310,BD2VHI,AOML,UNKNOWN,North
2021-09-29T00:00:00Z,1632873600,2021,0,0,272.0,272.0,64.234,-34.611,1008.3,8.66,-999.0,yes,yes,no,300234068441310,BD2VHI,AOML,UNKNOWN,North
2021-09-29T03:00:00Z,1632884400,2021,3,0,272.125,272.125,64.212,-34.639,1008.8,8.66,-999.0,yes,yes,no,300234068441310,BD2VHI,AOML,UNKNOWN,North
2021-09-29T06:00:00Z,1632895200,2021,6,0,272.25,272.25,64.194,-34.676,1009.2,8.61,-999.0,yes,yes,no,300234068441310,BD2VHI,AOML,UNKNOWN,North
2021-09-29T09:00:00Z,1632906000,2021,9,0,272.375,272.375,64.172,-34.696,1010.6,8.6,-999.0,yes,yes,no,300234068441310,BD2VHI,AOML,UNKNOWN,North
2021-09-29T12:00:00Z,1632916800,2021,12,0,272.5,272.5,64.136,-34.728,1011.7,8.68,-999.0,yes,yes,no,300234068441310,BD2VHI,AOML,UNKNOWN,North
2021-09-29T15:00:00Z,1632927600,2021,15,0,272.625,272.625,64.097,-34.789,1011.7,8.64,-999.0,yes,yes,no,300234068441310,BD2VHI,AOML,UNKNOWN,North
2021-09-29T18:00:00Z,1632938400,2021,18,0,272.75,272.75,64.072,-34.852,1011.8,8.55,-999.0,yes,yes,no,300234068441310,BD2VHI,AOML,UNKNOWN,North
2021-09-29T21:00:00Z,1632949200,2021,21,0,272.875,272.875,64.051,-34.87,1011.9,8.56,-999.0,yes,yes,no,300234068441310,BD2VHI,AOML,UNKNOWN,North
